Regional Weather Roundup
Issued by NWS

Home | Current Version | Previous Version | Graphics & Text | Print | Product List | Glossary On
Versions: 1 2 3 4 5 6 7 8 9 10 11 12 13 14 15 16 17 18 19 20 21 22 23 24 25 26 27 28 29 30 31 32 33 34 35 36 37 38 39 40 41 42 43 44 45 46 47 48 49 50
000
ASUS43 KFSD 301302
RWRSD

WEATHER ROUNDUP FOR SOUTH DAKOTA
NATIONAL WEATHER SERVICE SIOUX FALLS SD
800 AM CDT MON MAR 30 2015

NOTE: "FAIR" INDICATES FEW OR NO CLOUDS BELOW 12,000 FEET WITH NO
SIGNIFICANT WEATHER AND/OR OBSTRUCTIONS TO VISIBILITY.


SDZ001>005-009-010-012>017-301400-
NORTHWEST AND NORTH CENTRAL SOUTH DAKOTA

CITY           SKY/WX    TMP DP  RH WIND       PRES   REMARKS
BUFFALO          N/A     39  28  64 W10       29.92R
FAITH            N/A     46  25  43 W17       29.94R
MOBRIDGE       CLOUDY    36  29  75 E3        29.86F
$$

SDZ012>016-024>037-041>051-057-063-072>074-301400-
SOUTHWEST AND SOUTH CENTRAL SOUTH DAKOTA

CITY           SKY/WX    TMP DP  RH WIND       PRES   REMARKS
RAPID CTY ARPT PTCLDY    42  21  43 W8        30.00S
PIERRE         CLOUDY    38  28  67 CALM      29.92S
CUSTER         CLEAR     39  17  41 W6        30.06S
PHILIP         PTCLDY    36  26  67 W13       29.96S
PINE RIDGE     PTCLDY    25  19  78 CALM      30.03S
SPEARFISH      FAIR      46  23  39 W8        30.04R
WINNER         FAIR      43  21  41 S5        29.96F
$$

SDZ004>011-016>023-039-040-301400-
NORTHEAST SOUTH DAKOTA

CITY           SKY/WX    TMP DP  RH WIND       PRES   REMARKS
ABERDEEN       PTCLDY    32  24  72 S9        29.90S WCI  24
WATERTOWN      PTCLDY    34  27  75 S9        29.91F WCI  27
SISSETON         N/A     38  30  73 SE7       29.87F
$$

SDZ017-020-022-023-036>040-048>070-301400-
SOUTHEAST SOUTH DAKOTA

CITY           SKY/WX    TMP DP  RH WIND       PRES   REMARKS
SIOUX FALLS    PTCLDY    38  23  55 SW5       29.98F
HURON          PTCLDY    34  25  69 S3        29.91F
MITCHELL       MOCLDY    48  22  35 SW13      29.93F
YANKTON        PTCLDY    46  21  36 SW9       30.01F
$$

ABBREVIATIONS USED IN REMARKS
   TC - TEMPERATURE IN CELSIUS
  WCI - WIND CHILL INDEX
   HX - HEAT INDEX
  VSB - VISIBILITY



USA.gov is the U.S. government's official web portal to all federal, state and local government web resources and services.